This is the latest recevied weather packets stored in our database for station/object VK1KCM-5. If no packets are shown the sender has not sent any weather packets the latest 10 day(s).
| Time | Temp. | Humidity | Pressure | Rain* | Wind** | Luminosity | Snow |
|---|---|---|---|---|---|---|---|
| 1788068803 | 20° C | 56% | 1024.8 hPa | 0 mm | - | - | - |
| 1788068508 | 19.44° C | 55% | 1024.9 hPa | 0 mm | - | - | - |
| 1788068243 | 19.44° C | 54% | 1024.9 hPa | 0 mm | - | - | - |
| 1788067958 | 20° C | 52% | 1024.6 hPa | 0 mm | - | - | - |
| 1788067663 | 20° C | 52% | 1024.9 hPa | 0 mm | - | - | - |
| 1788067393 | 19.44° C | 53% | 1024.8 hPa | 0 mm | - | - | - |
| 1788067133 | 19.44° C | 51% | 1025.2 hPa | 0 mm | - | - | - |
| 1788066848 | 19.44° C | 50% | 1025.3 hPa | 0 mm | - | - | - |
| 1788066558 | 19.44° C | 50% | 1025 hPa | 0 mm | - | - | - |
| 1788066273 | 20° C | 49% | 1025.2 hPa | 0 mm | - | - | - |
| 1788065987 | 20.56° C | 46% | 1024.8 hPa | 0 mm | - | - | - |
| 1788065698 | 20.56° C | 45% | 1024.9 hPa | 0 mm | - | - | - |
| 1788065413 | 21.11° C | 44% | 1024.6 hPa | 0 mm | - | - | - |
| 1788065138 | 21.11° C | 44% | 1024.6 hPa | 0 mm | - | - | - |
| 1788064853 | 20.56° C | 45% | 1025.1 hPa | 0 mm | - | - | - |
| 1788064603 | 20.56° C | 44% | 1024.8 hPa | 0 mm | - | - | - |
| 1788064311 | 21.11° C | 44% | 1024.6 hPa | 0 mm | - | - | - |
| 1788064068 | 21.11° C | 43% | 1024.6 hPa | 0 mm | - | - | - |
| 1788063771 | 21.67° C | 43% | 1025.1 hPa | 0 mm | - | - | - |
| 1788063488 | 21.67° C | 42% | 1024.5 hPa | 0 mm | - | - | - |
| 1788063228 | 21.11° C | 43% | 1025 hPa | 0 mm | - | - | - |
| 1788062968 | 21.11° C | 43% | 1024.9 hPa | 0 mm | - | - | - |
| 1788062708 | 20.56° C | 43% | 1024.8 hPa | 0 mm | - | - | - |
| 1788062418 | 20.56° C | 42% | 1024.6 hPa | 0 mm | - | - | - |
| 1788062171 | 20.56° C | 42% | 1024.6 hPa | 0 mm | - | - | - |
* Rain latest hour (hover to see other rain measurements)
** Current wind speed in m/s (hover to see current wind gust speed)